Monett, MO

8:57 PM CDT on August 23, 2017 (GMT -0500)
Monett

Weather History for KHFJ - February, 2012

Change the Weather History Date:

Tuesday, February 21, 2012

  Actual Average (KJLN) Record (KJLN)
Temperature  
Mean Temperature 45 °F -  
Max Temperature 55 °F 54 °F 76 °F (1996)
Min Temperature 35 °F 32 °F 9 °F (1963)
Degree Days  
Heating Degree Days 20    
Moisture  
Dew Point 29 °F    
Average Humidity 58    
Maximum Humidity 81    
Minimum Humidity 29    
Precipitation  
Precipitation 0.00 in - - ()
Sea Level Pressure  
Sea Level Pressure 29.92 in    
Wind  
Wind Speed 16 mph (WSW)    
Max Wind Speed 26 mph    
Max Gust Speed 36 mph    
Visibility 10 miles    
Events      
Averages and records for this station are not official NWS values.
T = Trace of Precipitation, MM = Missing Value Source: NWS Daily Summary

Daily Weather History Graph

Daily Weather History Graph

Search for Another Location

Airport or City:

Trip Planner

Search our weather history database for the weather conditions in past years. The results will help you decide how hot, cold, wet, or windy it might be!

Date:

Astronomy

Feb. 21, 2012 Rise Set
Actual Time 6:57 AM CST 6:01 PM CST
Civil Twilight 6:31 AM CST 6:28 PM CST
Nautical Twilight 6:01 AM CST 6:58 PM CST
Astronomical Twilight 5:31 AM CST 7:28 PM CST
Moon 6:27 AM CST (2/21) 6:07 PM CST (2/21)
Length of Visible Light 11h 56m
Length of Day
11h 04m
Waning Crescent, 0% of the Moon is Illuminated
Feb 21
Waning Crescent
Feb 21
New
Feb 29
First Quarter
Mar 8
Full
Mar 14
Last Quarter

Hourly Weather History & Observations

Time (CST) Temp. Windchill Dew Point Humidity Pressure Visibility Wind Dir Wind Speed Gust Speed Precip Events Conditions
12:15 AM 41.0 °F 30.5 °F 33.8 °F 76% 29.78 in 10.0 mi SW 26.5 mph 34.5 mph N/A   Overcast
12:35 AM 41.0 °F 30.9 °F 33.8 °F 76% 29.79 in 10.0 mi WSW 24.2 mph 34.5 mph N/A   Overcast
12:55 AM 41.0 °F 32.2 °F 33.8 °F 76% 29.81 in 10.0 mi WSW 18.4 mph 29.9 mph N/A   Overcast
1:15 AM 41.0 °F 31.1 °F 33.8 °F 76% 29.82 in 10.0 mi WSW 23.0 mph 35.7 mph N/A   Overcast
1:35 AM 41.0 °F 31.6 °F 33.8 °F 76% 29.83 in 10.0 mi WSW 20.7 mph 28.8 mph N/A   Overcast
1:55 AM 41.0 °F 30.9 °F 33.8 °F 76% 29.84 in 10.0 mi WSW 24.2 mph 31.1 mph N/A   Overcast
2:15 AM 41.0 °F 32.8 °F 33.8 °F 76% 29.86 in 10.0 mi WSW 16.1 mph 29.9 mph N/A   Overcast
2:35 AM 41.0 °F 31.9 °F 33.8 °F 76% 29.86 in 10.0 mi WSW 19.6 mph 31.1 mph N/A   Overcast
2:55 AM 41.0 °F 32.5 °F 33.8 °F 76% 29.86 in 10.0 mi WSW 17.3 mph 25.3 mph N/A   Overcast
3:15 AM 41.0 °F 31.9 °F 33.8 °F 76% 29.88 in 10.0 mi WSW 19.6 mph 25.3 mph N/A   Overcast
3:35 AM 41.0 °F 33.1 °F 33.8 °F 76% 29.89 in 10.0 mi WSW 15.0 mph 24.2 mph N/A   Overcast
3:55 AM 39.2 °F 30.2 °F 33.8 °F 81% 29.89 in 10.0 mi WSW 17.3 mph 24.2 mph N/A   Overcast
4:15 AM 39.2 °F 30.8 °F 33.8 °F 81% 29.89 in 10.0 mi WSW 15.0 mph 23.0 mph N/A   Overcast
4:35 AM 39.2 °F 30.5 °F 32.0 °F 75% 29.90 in 10.0 mi WSW 16.1 mph 24.2 mph N/A   Overcast
4:55 AM 39.2 °F 29.0 °F 32.0 °F 75% 29.91 in 10.0 mi West 21.9 mph 25.3 mph N/A   Overcast
5:15 AM 39.2 °F 29.8 °F 32.0 °F 75% 29.93 in 10.0 mi WSW 18.4 mph 25.3 mph N/A   Overcast
5:35 AM 37.4 °F 28.2 °F 32.0 °F 81% 29.93 in 10.0 mi WSW 16.1 mph 20.7 mph N/A   Overcast
5:55 AM 37.4 °F 28.9 °F 32.0 °F 81% 29.94 in 10.0 mi West 13.8 mph - N/A   Scattered Clouds
6:15 AM 35.6 °F 27.1 °F 30.2 °F 81% 29.94 in 10.0 mi West 12.7 mph 20.7 mph N/A   Clear
6:35 AM 35.6 °F 28.0 °F 30.2 °F 81% 29.95 in 10.0 mi West 10.4 mph - N/A   Clear
6:55 AM 35.6 °F 27.5 °F 30.2 °F 81% 29.96 in 10.0 mi WSW 11.5 mph - N/A   Clear
7:15 AM 35.6 °F 27.5 °F 30.2 °F 81% 29.96 in 10.0 mi WSW 11.5 mph - N/A   Clear
7:35 AM 35.6 °F 27.5 °F 30.2 °F 81% 29.97 in 10.0 mi West 11.5 mph - N/A   Clear
7:55 AM 35.6 °F 27.5 °F 30.2 °F 81% 29.99 in 10.0 mi WSW 11.5 mph 16.1 mph N/A   Clear
8:15 AM 37.4 °F 29.3 °F 30.2 °F 75% 29.99 in 10.0 mi WSW 12.7 mph - N/A   Clear
8:35 AM 37.4 °F 29.3 °F 30.2 °F 75% 30.00 in 10.0 mi West 12.7 mph 16.1 mph N/A   Clear
8:55 AM 39.2 °F 32.5 °F 30.2 °F 70% 30.00 in 10.0 mi West 10.4 mph 17.3 mph N/A   Clear
9:15 AM 41.0 °F 33.9 °F 30.2 °F 65% 30.01 in 10.0 mi West 12.7 mph - N/A   Clear
9:35 AM 41.0 °F 34.7 °F 30.2 °F 65% 30.01 in 10.0 mi West 10.4 mph - N/A   Clear
9:55 AM 42.8 °F 38.6 °F 30.2 °F 61% 30.01 in 10.0 mi West 6.9 mph - N/A   Clear
10:15 AM 42.8 °F 38.0 °F 30.2 °F 61% 30.02 in 10.0 mi West 8.1 mph - N/A   Clear
10:35 AM 44.6 °F 40.2 °F 30.2 °F 57% 30.02 in 10.0 mi West 8.1 mph - N/A   Clear
10:55 AM 46.4 °F 43.5 °F 30.2 °F 53% 30.02 in 10.0 mi West 5.8 mph - N/A   Clear
11:15 AM 46.4 °F 43.5 °F 30.2 °F 53% 30.01 in 10.0 mi SW 5.8 mph - N/A   Clear
11:35 AM 46.4 °F 42.9 °F 30.2 °F 53% 30.01 in 10.0 mi SW 6.9 mph - N/A   Clear
12:15 PM 50.0 °F - 30.2 °F 47% 29.98 in 10.0 mi WSW 9.2 mph - N/A   Clear
12:35 PM 50.0 °F - 28.4 °F 43% 29.99 in 10.0 mi WSW 11.5 mph 18.4 mph N/A   Clear
12:55 PM 51.8 °F - 30.2 °F 44% 29.97 in 10.0 mi WSW 10.4 mph - N/A   Clear
1:15 PM 51.8 °F - 26.6 °F 38% 29.97 in 10.0 mi West 11.5 mph 16.1 mph N/A   Clear
1:35 PM 53.6 °F - 28.4 °F 38% 29.96 in 10.0 mi West 16.1 mph 21.9 mph N/A   Clear
1:55 PM 51.8 °F - 26.6 °F 38% 29.95 in 10.0 mi SW 12.7 mph 19.6 mph N/A   Clear
2:15 PM 53.6 °F - 26.6 °F 35% 29.95 in 10.0 mi WSW 15.0 mph 19.6 mph N/A   Clear
2:35 PM 53.6 °F - 26.6 °F 35% 29.93 in 10.0 mi SW 8.1 mph - N/A   Clear
2:55 PM 53.6 °F - 26.6 °F 35% 29.92 in 10.0 mi SW 10.4 mph - N/A   Clear
3:15 PM 53.6 °F - 26.6 °F 35% 29.91 in 10.0 mi WSW 6.9 mph - N/A   Clear
3:35 PM 55.4 °F - 26.6 °F 33% 29.90 in 10.0 mi SW 11.5 mph 26.5 mph N/A   Clear
3:55 PM 55.4 °F - 24.8 °F 31% 29.89 in 10.0 mi WSW 12.7 mph - N/A   Clear
4:15 PM 55.4 °F - 23.0 °F 29% 29.88 in 10.0 mi SW 12.7 mph 16.1 mph N/A   Clear
4:35 PM 55.4 °F - 23.0 °F 29% 29.88 in 10.0 mi SW 13.8 mph 20.7 mph N/A   Clear
4:55 PM 55.4 °F - 23.0 °F 29% 29.88 in 10.0 mi WSW 13.8 mph 19.6 mph N/A   Clear
5:35 PM 53.6 °F - 23.0 °F 30% 29.89 in 10.0 mi West 9.2 mph - N/A   Clear
5:55 PM 51.8 °F - 23.0 °F 33% 29.90 in 10.0 mi West 8.1 mph - N/A   Clear
6:15 PM 50.0 °F - 23.0 °F 35% 29.89 in 10.0 mi WSW 4.6 mph - N/A   Clear
6:35 PM 50.0 °F - 21.2 °F 32% 29.89 in 10.0 mi SW 3.5 mph - N/A   Clear
7:15 PM 46.4 °F - 21.2 °F 37% 29.89 in 10.0 mi Calm Calm - N/A   Clear
7:55 PM 48.2 °F - 23.0 °F 37% 29.88 in 10.0 mi WSW 3.5 mph - N/A   Clear
8:15 PM 46.4 °F - 23.0 °F 40% 29.88 in 10.0 mi Calm Calm - N/A   Clear
8:55 PM 44.6 °F 43.1 °F 26.6 °F 49% 29.87 in 10.0 mi SE 3.5 mph - N/A   Clear
9:15 PM 44.6 °F - 23.0 °F 43% 29.87 in 10.0 mi Calm Calm - N/A   Clear
9:35 PM 42.8 °F 40.1 °F 28.4 °F 57% 29.86 in 10.0 mi SE 4.6 mph - N/A   Clear
10:15 PM 42.8 °F 38.6 °F 26.6 °F 53% 29.85 in 10.0 mi SE 6.9 mph - N/A   Clear
10:35 PM 41.0 °F 36.4 °F 26.6 °F 57% 29.83 in 10.0 mi SE 6.9 mph - N/A   Clear
10:55 PM 41.0 °F 36.4 °F 26.6 °F 57% 29.83 in 10.0 mi SSE 6.9 mph - N/A   Clear
11:15 PM 41.0 °F 36.4 °F 26.6 °F 57% 29.82 in 10.0 mi SSE 6.9 mph - N/A   Clear
11:35 PM 42.8 °F 38.6 °F 26.6 °F 53% 29.81 in 10.0 mi South 6.9 mph - N/A   Clear
11:55 PM 42.8 °F 38.0 °F 26.6 °F 53% 29.80 in 10.0 mi South 8.1 mph - N/A   Clear